Mount Pleasant, SC

9:22 PM EDT on May 25, 2017 (GMT -0400)
Mount Pleasant

Weather History for KLRO - February, 2012

Change the Weather History Date:

Monday, February 20, 2012

  Actual Average (KCHS) Record (KCHS)
Temperature  
Mean Temperature 48 °F -  
Max Temperature 57 °F 64 °F 82 °F (1991)
Min Temperature 39 °F 41 °F 18 °F (2015)
Degree Days  
Heating Degree Days 17    
Moisture  
Dew Point 35 °F    
Average Humidity 68    
Maximum Humidity 87    
Minimum Humidity 38    
Precipitation  
Precipitation 0.00 in - - ()
Sea Level Pressure  
Sea Level Pressure 30.14 in    
Wind  
Wind Speed 11 mph (North)    
Max Wind Speed 17 mph    
Max Gust Speed 28 mph    
Visibility 10 miles    
Events Rain    
Averages and records for this station are not official NWS values.
T = Trace of Precipitation, MM = Missing Value Source: NWS Daily Summary

Daily Weather History Graph

Daily Weather History Graph

Search for Another Location

Airport or City:

Trip Planner

Search our weather history database for the weather conditions in past years. The results will help you decide how hot, cold, wet, or windy it might be!

Date:

Astronomy

Feb. 20, 2012 Rise Set
Actual Time 6:57 AM EST 6:08 PM EST
Civil Twilight 6:32 AM EST 6:33 PM EST
Nautical Twilight 6:03 AM EST 7:02 PM EST
Astronomical Twilight 5:35 AM EST 7:30 PM EST
Moon 5:51 AM EST (2/20) 5:11 PM EST (2/20)
Length of Visible Light 12h 00m
Length of Day
11h 10m
Waning Crescent, 2% of the Moon is Illuminated
Feb 20
Waning Crescent
Feb 21
New
Feb 29
First Quarter
Mar 8
Full
Mar 14
Last Quarter

Hourly Weather History & Observations

Time (EST) Temp. Windchill Dew Point Humidity Pressure Visibility Wind Dir Wind Speed Gust Speed Precip Events Conditions
12:15 AM 44.6 °F 37.2 °F 39.2 °F 81% 29.88 in 10.0 mi NW 17.3 mph 23.0 mph N/A Rain Light Rain
12:35 AM 44.6 °F 38.1 °F 39.2 °F 81% 29.89 in 10.0 mi NW 13.8 mph 21.9 mph N/A Rain Light Rain
12:55 AM 42.8 °F 34.8 °F 39.2 °F 87% 29.91 in 10.0 mi NW 17.3 mph 23.0 mph N/A Rain Light Rain
1:15 AM 42.8 °F 38.0 °F 39.2 °F 87% 29.93 in 10.0 mi NNW 8.1 mph 16.1 mph N/A Rain Light Rain
1:35 AM 42.8 °F 35.4 °F 39.2 °F 87% 29.94 in 10.0 mi NW 15.0 mph 24.2 mph N/A Rain Light Rain
1:55 AM 42.8 °F 35.4 °F 39.2 °F 87% 29.95 in 10.0 mi NW 15.0 mph 24.2 mph N/A Rain Light Rain
2:15 AM 42.8 °F 35.1 °F 37.4 °F 81% 29.95 in 10.0 mi NW 16.1 mph 27.6 mph N/A Rain Light Rain
2:35 AM 41.0 °F 32.5 °F 35.6 °F 81% 29.96 in 10.0 mi NNW 17.3 mph 23.0 mph N/A Rain Light Rain
2:55 AM 41.0 °F 34.3 °F 35.6 °F 81% 29.97 in 10.0 mi NNW 11.5 mph 20.7 mph N/A Rain Light Rain
3:15 AM 41.0 °F 33.1 °F 35.6 °F 81% 29.99 in 10.0 mi NNW 15.0 mph 20.7 mph N/A Rain Light Rain
3:35 AM 39.2 °F 33.0 °F 35.6 °F 87% 30.00 in 10.0 mi NNW 9.2 mph 18.4 mph N/A   Overcast
3:55 AM 39.2 °F 33.6 °F 33.8 °F 81% 30.01 in 10.0 mi NNW 8.1 mph 17.3 mph N/A   Overcast
4:15 AM 39.2 °F 33.6 °F 33.8 °F 81% 30.02 in 10.0 mi North 8.1 mph 16.1 mph N/A   Overcast
4:35 AM 39.2 °F 34.2 °F 33.8 °F 81% 30.04 in 10.0 mi NNW 6.9 mph - N/A   Overcast
4:55 AM 39.2 °F 33.0 °F 33.8 °F 81% 30.05 in 10.0 mi NNW 9.2 mph - N/A   Overcast
5:15 AM 39.2 °F 33.0 °F 35.6 °F 87% 30.05 in 10.0 mi NNW 9.2 mph - N/A   Overcast
5:35 AM 39.2 °F 32.0 °F 35.6 °F 87% 30.07 in 10.0 mi NNW 11.5 mph - N/A   Unknown
5:55 AM 39.2 °F 32.5 °F 35.6 °F 87% 30.09 in 10.0 mi NNW 10.4 mph - N/A   Overcast
6:15 AM 39.2 °F 33.0 °F 35.6 °F 87% 30.10 in 10.0 mi NNW 9.2 mph - N/A   Overcast
6:35 AM 39.2 °F 34.2 °F 35.6 °F 87% 30.10 in 10.0 mi North 6.9 mph - N/A   Overcast
6:55 AM 39.2 °F 33.0 °F 33.8 °F 81% 30.12 in 10.0 mi North 9.2 mph 18.4 mph N/A   Overcast
7:15 AM 39.2 °F 33.0 °F 35.6 °F 87% 30.12 in 10.0 mi NNW 9.2 mph - N/A   Overcast
7:55 AM 39.2 °F 32.0 °F 33.8 °F 81% 30.14 in 10.0 mi North 11.5 mph 19.6 mph N/A   Clear
8:15 AM 39.2 °F 33.0 °F 33.8 °F 81% 30.15 in 10.0 mi NNW 9.2 mph 19.6 mph N/A   Partly Cloudy
8:35 AM 41.0 °F 34.7 °F 33.8 °F 76% 30.17 in 10.0 mi NNW 10.4 mph 18.4 mph N/A Rain Light Rain
9:15 AM 42.8 °F 37.0 °F 33.8 °F 70% 30.19 in 10.0 mi North 10.4 mph 18.4 mph N/A Rain Light Rain
9:35 AM 42.8 °F 37.0 °F 33.8 °F 70% 30.21 in 10.0 mi North 10.4 mph 18.4 mph N/A Rain Light Rain
9:55 AM 44.6 °F 38.8 °F 33.8 °F 66% 30.21 in 10.0 mi North 11.5 mph 16.1 mph N/A   Clear
10:15 AM 44.6 °F 39.2 °F 33.8 °F 66% 30.21 in 10.0 mi North 10.4 mph 16.1 mph N/A   Clear
10:35 AM 46.4 °F 41.1 °F 33.8 °F 62% 30.22 in 10.0 mi North 11.5 mph 18.4 mph N/A   Clear
10:55 AM 46.4 °F 42.4 °F 33.8 °F 62% 30.22 in 10.0 mi North 8.1 mph 16.1 mph N/A   Clear
11:15 AM 48.2 °F - 33.8 °F 58% 30.22 in 10.0 mi North 12.7 mph 17.3 mph N/A   Clear
11:35 AM 50.0 °F - 33.8 °F 54% 30.22 in 10.0 mi North 8.1 mph 17.3 mph N/A   Clear
11:55 AM 50.0 °F - 32.0 °F 50% 30.22 in 10.0 mi North 6.9 mph 20.7 mph N/A   Clear
12:15 PM 51.8 °F - 32.0 °F 47% 30.21 in 10.0 mi North 10.4 mph 17.3 mph N/A   Clear
12:35 PM 51.8 °F - 33.8 °F 50% 30.21 in 10.0 mi North 10.4 mph 20.7 mph N/A   Clear
12:55 PM 53.6 °F - 32.0 °F 44% 30.20 in 10.0 mi North 6.9 mph - N/A   Clear
1:15 PM 53.6 °F - 33.8 °F 47% 30.21 in 10.0 mi North 8.1 mph - N/A   Clear
1:35 PM 53.6 °F - 32.0 °F 44% 30.21 in 10.0 mi NNW 6.9 mph - N/A   Clear
1:55 PM 55.4 °F - 33.8 °F 44% 30.21 in 10.0 mi North 4.6 mph - N/A   Clear
2:15 PM 55.4 °F - 32.0 °F 41% 30.22 in 10.0 mi North 8.1 mph - N/A   Clear
2:35 PM 55.4 °F - 32.0 °F 41% 30.22 in 10.0 mi North 3.5 mph - N/A   Clear
2:55 PM 57.2 °F - 32.0 °F 38% 30.23 in 10.0 mi NNW 8.1 mph - N/A   Clear
3:15 PM 57.2 °F - 32.0 °F 38% 30.23 in 10.0 mi Calm Calm - N/A   Clear
3:35 PM 55.4 °F - 32.0 °F 41% 30.24 in 10.0 mi Calm Calm - N/A   Clear
3:55 PM 57.2 °F - 32.0 °F 38% 30.24 in 10.0 mi North 4.6 mph - N/A   Clear
4:15 PM 57.2 °F - 32.0 °F 38% 30.24 in 10.0 mi NE 3.5 mph - N/A   Clear
4:35 PM 55.4 °F - 32.0 °F 41% 30.24 in 10.0 mi South 3.5 mph - N/A   Clear
4:55 PM 53.6 °F - 37.4 °F 54% 30.25 in 10.0 mi SE 8.1 mph - N/A   Clear
5:15 PM 51.8 °F - 37.4 °F 58% 30.26 in 10.0 mi ESE 6.9 mph - N/A   Clear
5:35 PM 51.8 °F - 37.4 °F 58% 30.26 in 10.0 mi East 3.5 mph - N/A   Clear
5:55 PM 50.0 °F - 37.4 °F 62% 30.27 in 10.0 mi Calm Calm - N/A   Clear
6:15 PM 46.4 °F - 39.2 °F 76% 30.27 in 10.0 mi Calm Calm - N/A Rain Light Rain
6:35 PM 44.6 °F 43.1 °F 39.2 °F 81% 30.27 in 10.0 mi East 3.5 mph - N/A Rain Light Rain
6:55 PM 44.6 °F - 39.2 °F 81% 30.28 in 10.0 mi Calm Calm - N/A Rain Light Rain
7:15 PM 42.8 °F - 39.2 °F 87% 30.28 in 10.0 mi Calm Calm - N/A Rain Light Rain
7:35 PM 42.8 °F - 39.2 °F 87% 30.29 in 10.0 mi Calm Calm - N/A Rain Light Rain
7:55 PM 41.0 °F - 39.2 °F 93% 30.30 in 10.0 mi Calm Calm - N/A Rain Light Rain
8:15 PM 41.0 °F - 39.2 °F 93% 30.31 in 10.0 mi North - - N/A Rain Light Rain
8:35 PM 39.2 °F - 39.2 °F 100% 30.32 in 10.0 mi Calm Calm - N/A Rain Light Rain
8:55 PM 39.2 °F - 37.4 °F 93% 30.32 in 10.0 mi Calm Calm - N/A Rain Light Rain
9:15 PM 39.2 °F - 39.2 °F 100% 30.32 in 10.0 mi Calm Calm - N/A Rain Light Rain
9:35 PM 39.2 °F - 39.2 °F 100% 30.32 in 10.0 mi Calm Calm - N/A Rain Light Rain
9:55 PM 39.2 °F - 37.4 °F 93% 30.33 in 10.0 mi Calm Calm - N/A Rain Light Rain
10:15 PM 39.2 °F - 37.4 °F 93% 30.33 in 9.0 mi Calm Calm - N/A   Clear
10:35 PM 39.2 °F - 37.4 °F 93% 30.33 in 9.0 mi Calm Calm - N/A   Clear
10:55 PM 39.2 °F - 37.4 °F 93% 30.32 in 8.0 mi Calm Calm - N/A Rain Light Rain
11:15 PM 39.2 °F - 37.4 °F 93% 30.33 in 9.0 mi Calm Calm - N/A Rain Light Rain
11:35 PM 37.4 °F - 37.4 °F 100% 30.32 in 7.0 mi Calm Calm - N/A Rain Light Rain
11:55 PM 39.2 °F - 37.4 °F 93% 30.32 in 8.0 mi Calm Calm - N/A Rain Light Rain